Flag for India Weather past 2 weeks in Ghazipur, Uttar Pradesh, India

Now
84 °F

Passing clouds.


Feels Like: 98 °F
Forecast: 83 / 96 °F
Wind: 2 mph from Northeast

Location: Varanasi / Babatpur

Current Time: Jul 30, 2014 at 11:29:51 PM

Latest Report: Jul 30, 2014 at 10:00 PM


Visibility: 3 mi

Pressure: 29.56 "Hg

Humidity: 89%

Dew point: 81 °F

Location of GhazipurLocation

Historic Weather in Ghazipur — Graph

°F

Ghazipur temperature yesterday

Maximum temperature yesterday: 95 °F (at 1:00 PM)
Minimum temperature yesterday: 82 °F (at 10:00 PM)
Average temperature yesterday: 89 °F

Past Weeks' High & Low Weather Summary

 TemperatureHumidityPressure
High97 °F (Jul 17, 1:00 PM)100% (Jul 17, 6:00 PM)29.74 "Hg (Jul 17, 6:00 PM)
Low77 °F (Jul 24, 4:00 AM)56% (Jul 17, 1:00 PM)29.33 "Hg (Jul 19, 4:00 PM)
Average86 °F80%29.51 "Hg
* Reported Jul 16 10:00 AM — Jul 30 10:00 PM, Ghazipur, Weather by CustomWeather, © 2014

Note: Actual official high and low records may vary slightly from our data, if they occured in-between our weather recording intervals... More about our weather records

Advertising

Ghazipur weather history for previous 24 hours

 ConditionsComfort  
Time TempWeatherWind HumidityBarometerVisibility
10:00 PM
Jul 30
84 °FPassing clouds.2 mph89%29.56 "Hg3 mi
8:00 PM84 °FPassing clouds.No wind89%29.53 "Hg3 mi
7:00 PM86 °FScattered clouds.3 mph84%29.50 "Hg3 mi
6:00 PM86 °FScattered clouds.3 mph84%29.47 "Hg3 mi
4:00 PM90 °FBroken clouds.3 mph71%29.47 "Hg3 mi
3:00 PM93 °FBroken clouds.8 mph67%29.47 "Hg4 mi
2:00 PM95 °FScattered clouds.9 mph63%29.50 "Hg4 mi
12:00 PM93 °FScattered clouds.8 mph63%29.56 "Hg4 mi
11:00 AM91 °FScattered clouds.9 mph71%29.56 "Hg4 mi
10:00 AM91 °FScattered clouds.9 mph67%29.56 "Hg3 mi
9:00 AM88 °FScattered clouds.9 mph79%29.56 "Hg3 mi
8:00 AM86 °FHaze.5 mph79%29.56 "Hg2 mi
7:00 AM84 °FScattered clouds.7 mph84%29.53 "HgN/A
6:00 AM82 °FScattered clouds.2 mph89%29.50 "Hg3 mi
5:00 AM81 °FPartly cloudy.5 mph100%29.53 "Hg3 mi
4:00 AM82 °FPassing clouds.2 mph94%29.50 "Hg3 mi
12:00 AM82 °FPartly cloudy.3 mph94%29.53 "Hg3 mi
11:00 PM
Jul 29
82 °FPartly cloudy.3 mph94%29.53 "Hg3 mi
Weather by CustomWeather, © 2014

See weather overviewHow to use our weather pages